| time (UTC) | temp F | wind direction | speed MPH | gust MPH | rain 1hr in | rain 24hr in | rain mn in | humidity % | barometer mb |
| 20260506215009 | 84 | 43 | 4.0 | 6.0 | 0.00 | 0.00 | 0.00 | 74 | 1010.9 |
| 20260506214506 | 84 | 61 | 6.0 | 9.0 | 0.00 | 0.00 | 0.00 | 74 | 1010.9 |
| 20260506214003 | 84 | 109 | 6.0 | 9.0 | 0.00 | 0.00 | 0.00 | 75 | 1010.9 |
| 20260506213501 | 85 | 95 | 1.0 | 2.0 | 0.00 | 0.00 | 0.00 | 75 | 1010.9 |
| 20260506212958 | 85 | 56 | 2.0 | 3.0 | 0.00 | 0.00 | 0.00 | 74 | 1010.5 |
| 20260506212454 | 85 | 104 | 6.0 | 9.0 | 0.00 | 0.00 | 0.00 | 74 | 1010.5 |
| 20260506211949 | 85 | 53 | 4.0 | 6.0 | 0.00 | 0.00 | 0.00 | 75 | 1010.5 |
| 20260506211445 | 85 | 48 | 3.0 | 5.0 | 0.00 | 0.00 | 0.00 | 74 | 1010.9 |
| 20260506210942 | 86 | 104 | 5.0 | 6.0 | 0.00 | 0.00 | 0.00 | 73 | 1010.9 |
| 20260506210439 | 86 | 73 | 4.0 | 6.0 | 0.00 | 0.00 | 0.00 | 73 | 1010.9 |
| 20260506205936 | 86 | 104 | 4.0 | 7.0 | 0.00 | 0.00 | 0.00 | 73 | 1010.9 |
| 20260506205432 | 86 | 109 | 3.0 | 3.0 | 0.00 | 0.00 | 0.00 | 73 | 1010.5 |
| 20260506204928 | 86 | 111 | 5.0 | 5.0 | 0.00 | 0.00 | 0.00 | 72 | 1010.9 |
| 20260506204427 | 86 | 103 | 1.0 | 2.0 | 0.00 | 0.00 | 0.00 | 71 | 1011.2 |
| 20260506203924 | 86 | 117 | 2.0 | 3.0 | 0.00 | 0.00 | 0.00 | 72 | 1011.2 |
| 20260506203421 | 86 | 55 | 1.0 | 2.0 | 0.00 | 0.00 | 0.00 | 71 | 1011.2 |
| 20260506202917 | 86 | 67 | 1.0 | 1.0 | 0.00 | 0.00 | 0.00 | 72 | 1011.2 |
| 20260506202415 | 85 | 48 | 1.0 | 1.0 | 0.00 | 0.00 | 0.00 | 72 | 1011.2 |
| 20260506201911 | 85 | 44 | 1.0 | 1.0 | 0.00 | 0.00 | 0.00 | 74 | 1011.2 |
| 20260506201409 | 85 | 52 | 1.0 | 1.0 | 0.00 | 0.00 | 0.00 | 73 | 1011.2 |
| 20260506200905 | 85 | 73 | 1.0 | 2.0 | 0.00 | 0.00 | 0.00 | 75 | 1011.5 |
| 20260506200401 | 87 | 69 | 1.0 | 1.0 | 0.00 | 0.00 | 0.00 | 74 | 1010.9 |
| 20260506195858 | 86 | 79 | 0.0 | 0.0 | 0.00 | 0.00 | 0.00 | 73 | 1011.2 |
| 20260506195355 | 86 | 119 | 3.0 | 3.0 | 0.00 | 0.00 | 0.00 | 74 | 1011.2 |
| 20260506194851 | 86 | 105 | 2.0 | 2.0 | 0.00 | 0.00 | 0.00 | 74 | 1011.2 |
| 20260506194348 | 85 | 66 | 1.0 | 1.0 | 0.00 | 0.00 | 0.00 | 75 | 1011.2 |
| 20260506193846 | 86 | 61 | 2.0 | 3.0 | 0.00 | 0.00 | 0.00 | 74 | 1011.5 |
| 20260506193343 | 85 | 38 | 2.0 | 3.0 | 0.00 | 0.00 | 0.00 | 75 | 1011.2 |
| 20260506192839 | 85 | 55 | 2.0 | 2.0 | 0.00 | 0.00 | 0.00 | 75 | 1011.5 |
| 20260506192336 | 86 | 103 | 0.0 | 0.0 | 0.00 | 0.00 | 0.00 | 75 | 1011.5 |
| 20260506191833 | 85 | 132 | 2.0 | 2.0 | 0.00 | 0.00 | 0.00 | 75 | 1011.5 |
| 20260506191329 | 85 | 135 | 1.0 | 2.0 | 0.00 | 0.00 | 0.00 | 76 | 1011.5 |
| 20260506190826 | 84 | 63 | 0.0 | 1.0 | 0.00 | 0.00 | 0.00 | 74 | 1011.2 |
| 20260506190322 | 84 | 82 | 1.0 | 1.0 | 0.00 | 0.00 | 0.00 | 76 | 1011.5 |
| 20260506185819 | 84 | 126 | 2.0 | 5.0 | 0.00 | 0.00 | 0.00 | 75 | 1011.5 |
| 20260506185316 | 84 | 161 | 3.0 | 3.0 | 0.00 | 0.00 | 0.00 | 77 | 1011.9 |
| 20260506184814 | 84 | 155 | 3.0 | 5.0 | 0.00 | 0.00 | 0.00 | 76 | 1011.9 |
| 20260506184311 | 84 | 159 | 3.0 | 3.0 | 0.00 | 0.00 | 0.00 | 77 | 1011.9 |
| 20260506183808 | 83 | 107 | 4.0 | 5.0 | 0.00 | 0.00 | 0.00 | 79 | 1011.9 |
| 20260506183303 | 83 | 43 | 1.0 | 2.0 | 0.00 | 0.00 | 0.00 | 80 | 1012.2 |
| 20260506182800 | 82 | 98 | 1.0 | 1.0 | 0.00 | 0.00 | 0.00 | 81 | 1011.9 |
| 20260506182257 | 82 | 68 | 0.0 | 0.0 | 0.00 | 0.00 | 0.00 | 81 | 1012.2 |
| 20260506181755 | 82 | 64 | 0.0 | 1.0 | 0.00 | 0.00 | 0.00 | 82 | 1012.2 |
| 20260506181253 | 82 | 62 | 1.0 | 2.0 | 0.00 | 0.00 | 0.00 | 82 | 1012.2 |
| 20260506180749 | 82 | 88 | 1.0 | 1.0 | 0.00 | 0.00 | 0.00 | 81 | 1012.2 |
| 20260506180245 | 81 | 88 | 2.0 | 2.0 | 0.00 | 0.00 | 0.00 | 81 | 1012.2 |
| 20260506175742 | 81 | 53 | 0.0 | 1.0 | 0.00 | 0.00 | 0.00 | 82 | 1012.5 |
| 20260506175239 | 81 | 49 | 3.0 | 3.0 | 0.00 | 0.00 | 0.00 | 82 | 1012.5 |
| 20260506174737 | 81 | 83 | 2.0 | 3.0 | 0.00 | 0.00 | 0.00 | 83 | 1012.2 |
| 20260506174233 | 81 | 68 | 5.0 | 7.0 | 0.00 | 0.00 | 0.00 | 83 | 1012.5 |
| 20260506173732 | 81 | 108 | 3.0 | 5.0 | 0.00 | 0.00 | 0.00 | 82 | 1012.5 |
| 20260506173228 | 81 | 45 | 3.0 | 5.0 | 0.00 | 0.00 | 0.00 | 82 | 1012.5 |
| 20260506172725 | 81 | 142 | 3.0 | 5.0 | 0.00 | 0.00 | 0.00 | 82 | 1012.5 |
| 20260506172221 | 81 | 88 | 2.0 | 2.0 | 0.00 | 0.00 | 0.00 | 82 | 1012.5 |
| 20260506171719 | 81 | 90 | 1.0 | 1.0 | 0.00 | 0.00 | 0.00 | 83 | 1012.9 |
| 20260506171216 | 81 | 45 | 3.0 | 3.0 | 0.00 | 0.00 | 0.00 | 83 | 1012.9 |
| 20260506170713 | 82 | 61 | 5.0 | 7.0 | 0.00 | 0.00 | 0.00 | 81 | 1012.9 |
| 20260506170210 | 81 | 96 | 2.0 | 2.0 | 0.00 | 0.00 | 0.00 | 82 | 1012.9 |
| 20260506165709 | 81 | 80 | 1.0 | 1.0 | 0.00 | 0.00 | 0.00 | 83 | 1012.5 |
| 20260506165205 | 81 | 82 | 3.0 | 5.0 | 0.00 | 0.00 | 0.00 | 84 | 1012.9 |
| 20260506164702 | 81 | 81 | 4.0 | 5.0 | 0.00 | 0.00 | 0.00 | 83 | 1012.5 |
| 20260506164159 | 80 | 85 | 3.0 | 5.0 | 0.00 | 0.00 | 0.00 | 83 | 1012.5 |
| 20260506163655 | 80 | 46 | 2.0 | 3.0 | 0.00 | 0.00 | 0.00 | 86 | 1012.5 |
| 20260506163151 | 80 | 38 | 3.0 | 5.0 | 0.00 | 0.00 | 0.00 | 86 | 1012.5 |
| 20260506162647 | 79 | 48 | 3.0 | 5.0 | 0.00 | 0.00 | 0.00 | 87 | 1012.5 |
| 20260506162145 | 80 | 66 | 3.0 | 5.0 | 0.00 | 0.00 | 0.00 | 87 | 1012.5 |
| 20260506161642 | 79 | 93 | 1.0 | 1.0 | 0.00 | 0.00 | 0.00 | 87 | 1012.5 |
| 20260506161138 | 79 | 81 | 2.0 | 2.0 | 0.00 | 0.00 | 0.00 | 87 | 1012.5 |
| 20260506160636 | 79 | 122 | 1.0 | 1.0 | 0.00 | 0.00 | 0.00 | 87 | 1012.9 |
| 20260506160133 | 79 | 113 | 0.0 | 0.0 | 0.00 | 0.00 | 0.00 | 88 | 1012.5 |
| 20260506155631 | 78 | 84 | 1.0 | 1.0 | 0.00 | 0.00 | 0.00 | 89 | 1012.5 |
| 20260506155128 | 77 | 60 | 3.0 | 3.0 | 0.00 | 0.00 | 0.00 | 92 | 1012.2 |
| 20260506153230 | 77 | 85 | 1.0 | 1.0 | 0.00 | 0.00 | 0.00 | 92 | 1011.9 |
| 20260506152727 | 77 | 96 | 1.0 | 1.0 | 0.00 | 0.00 | 0.00 | 93 | 1011.9 |
| 20260506152225 | 77 | 109 | 2.0 | 2.0 | 0.00 | 0.00 | 0.00 | 92 | 1012.2 |
| 20260506151724 | 77 | 113 | 0.0 | 0.0 | 0.00 | 0.00 | 0.00 | 93 | 1011.9 |
| 20260506151220 | 77 | 124 | 2.0 | 2.0 | 0.00 | 0.00 | 0.00 | 92 | 1011.9 |
| 20260506150716 | 77 | 114 | 0.0 | 0.0 | 0.00 | 0.00 | 0.00 | 92 | 1012.2 |
| 20260506150213 | 77 | 107 | 2.0 | 2.0 | 0.00 | 0.00 | 0.00 | 92 | 1011.9 |
| 20260506145710 | 77 | 106 | 1.0 | 1.0 | 0.00 | 0.00 | 0.00 | 92 | 1011.9 |
| 20260506145207 | 77 | 111 | 1.0 | 1.0 | 0.00 | 0.00 | 0.00 | 92 | 1011.9 |
| 20260506144704 | 77 | 105 | 0.0 | 0.0 | 0.00 | 0.00 | 0.00 | 93 | 1011.9 |
| 20260506144201 | 77 | 123 | 1.0 | 1.0 | 0.00 | 0.00 | 0.00 | 93 | 1011.9 |
| 20260506143659 | 76 | 118 | 1.0 | 1.0 | 0.00 | 0.00 | 0.00 | 93 | 1011.5 |
| 20260506143156 | 76 | 128 | 1.0 | 1.0 | 0.00 | 0.00 | 0.00 | 93 | 1011.5 |
| 20260506142655 | 76 | 130 | 0.0 | 1.0 | 0.00 | 0.00 | 0.00 | 94 | 1011.2 |
| 20260506142152 | 76 | 116 | 2.0 | 2.0 | 0.00 | 0.00 | 0.00 | 94 | 1011.5 |
| 20260506141650 | 76 | 106 | 2.0 | 2.0 | 0.00 | 0.00 | 0.00 | 93 | 1011.2 |
| 20260506141148 | 76 | 104 | 2.0 | 2.0 | 0.00 | 0.00 | 0.00 | 93 | 1011.2 |
| 20260506140645 | 76 | 157 | 2.0 | 2.0 | 0.00 | 0.00 | 0.00 | 93 | 1011.5 |
| 20260506140142 | 76 | 118 | 1.0 | 1.0 | 0.00 | 0.00 | 0.00 | 94 | 1011.2 |
| 20260506135639 | 76 | 117 | 1.0 | 2.0 | 0.00 | 0.00 | 0.00 | 93 | 1010.9 |
| 20260506135135 | 76 | 145 | 1.0 | 1.0 | 0.00 | 0.00 | 0.00 | 94 | 1010.9 |
| 20260506134632 | 76 | 142 | 1.0 | 2.0 | 0.00 | 0.00 | 0.00 | 94 | 1010.5 |
| 20260506134128 | 75 | 126 | 0.0 | 1.0 | 0.00 | 0.00 | 0.00 | 95 | 1010.5 |
| 20260506133625 | 75 | 119 | 2.0 | 3.0 | 0.00 | 0.00 | 0.00 | 95 | 1010.9 |
| 20260506133122 | 75 | 132 | 1.0 | 1.0 | 0.00 | 0.00 | 0.00 | 95 | 1010.5 |
| 20260506132620 | 75 | 131 | 3.0 | 5.0 | 0.00 | 0.00 | 0.00 | 95 | 1010.5 |
| 20260506132116 | 75 | 122 | 1.0 | 1.0 | 0.00 | 0.00 | 0.00 | 95 | 1010.5 |
| 20260506131614 | 75 | 143 | 2.0 | 2.0 | 0.00 | 0.00 | 0.00 | 94 | 1010.5 |
| 20260506131110 | 75 | 145 | 1.0 | 2.0 | 0.00 | 0.00 | 0.00 | 95 | 1010.5 |
| 20260506130607 | 75 | 122 | 1.0 | 1.0 | 0.00 | 0.00 | 0.00 | 95 | 1010.5 |
| 20260506130104 | 75 | 123 | 1.0 | 2.0 | 0.00 | 0.00 | 0.00 | 95 | 1010.5 |
| 20260506125603 | 75 | 124 | 1.0 | 2.0 | 0.00 | 0.00 | 0.00 | 95 | 1010.5 |
| 20260506125100 | 75 | 115 | 1.0 | 1.0 | 0.00 | 0.00 | 0.00 | 95 | 1010.5 |
| 20260506124557 | 75 | 121 | 1.0 | 1.0 | 0.00 | 0.00 | 0.00 | 95 | 1010.5 |
| 20260506124055 | 75 | 118 | 0.0 | 1.0 | 0.00 | 0.00 | 0.00 | 95 | 1010.5 |
| 20260506123553 | 75 | 130 | 2.0 | 2.0 | 0.00 | 0.00 | 0.00 | 95 | 1010.5 |
| 20260506123051 | 75 | 101 | 2.0 | 2.0 | 0.00 | 0.00 | 0.00 | 95 | 1010.2 |
| 20260506122547 | 75 | 123 | 0.0 | 0.0 | 0.00 | 0.00 | 0.00 | 95 | 1010.5 |
| 20260506122046 | 75 | 130 | 0.0 | 0.0 | 0.00 | 0.00 | 0.00 | 95 | 1010.5 |
| 20260506121543 | 75 | 122 | 0.0 | 0.0 | 0.00 | 0.00 | 0.00 | 95 | 1010.2 |
| 20260506121039 | 75 | 122 | 2.0 | 2.0 | 0.00 | 0.00 | 0.00 | 95 | 1010.2 |
| 20260506120537 | 75 | 118 | 3.0 | 5.0 | 0.00 | 0.00 | 0.00 | 95 | 1010.2 |
| 20260506120034 | 75 | 130 | 1.0 | 1.0 | 0.00 | 0.00 | 0.00 | 94 | 1010.2 |
| 20260506115532 | 75 | 130 | 0.0 | 1.0 | 0.00 | 0.00 | 0.00 | 94 | 1010.2 |
| 20260506115030 | 75 | 142 | 1.0 | 1.0 | 0.00 | 0.00 | 0.00 | 94 | 1010.2 |
| 20260506114527 | 75 | 124 | 1.0 | 1.0 | 0.00 | 0.00 | 0.00 | 94 | 1010.2 |
| 20260506114026 | 75 | 157 | 3.0 | 5.0 | 0.00 | 0.00 | 0.00 | 95 | 1010.2 |
| 20260506113523 | 75 | 128 | 1.0 | 2.0 | 0.00 | 0.00 | 0.00 | 94 | 1010.2 |
| 20260506113020 | 75 | 110 | 1.0 | 1.0 | 0.00 | 0.00 | 0.00 | 94 | 1010.2 |
| 20260506112517 | 75 | 94 | 1.0 | 1.0 | 0.00 | 0.00 | 0.00 | 94 | 1010.2 |
| 20260506112014 | 75 | 114 | 1.0 | 1.0 | 0.00 | 0.00 | 0.00 | 94 | 1010.2 |
| 20260506111512 | 75 | 120 | 0.0 | 0.0 | 0.00 | 0.00 | 0.00 | 94 | 1010.2 |
| 20260506111009 | 75 | 115 | 0.0 | 0.0 | 0.00 | 0.00 | 0.00 | 94 | 1010.2 |
| 20260506110507 | 75 | 105 | 0.0 | 0.0 | 0.00 | 0.00 | 0.00 | 94 | 1010.2 |
| 20260506110004 | 75 | 109 | 0.0 | 0.0 | 0.00 | 0.00 | 0.00 | 94 | 1010.2 |
| 20260506105459 | 75 | 104 | 0.0 | 0.0 | 0.00 | 0.00 | 0.00 | 94 | 1010.2 |
| 20260506104957 | 75 | 124 | 0.0 | 0.0 | 0.00 | 0.00 | 0.00 | 94 | 1009.8 |
| 20260506104455 | 75 | 132 | 0.0 | 0.0 | 0.00 | 0.00 | 0.00 | 94 | 1010.2 |
| 20260506103953 | 75 | 130 | 0.0 | 0.0 | 0.00 | 0.00 | 0.00 | 94 | 1009.8 |
| 20260506103449 | 75 | 138 | 0.0 | 0.0 | 0.00 | 0.00 | 0.00 | 94 | 1010.2 |
| 20260506102946 | 75 | 131 | 0.0 | 0.0 | 0.00 | 0.00 | 0.00 | 94 | 1010.2 |
| 20260506102444 | 75 | 130 | 0.0 | 0.0 | 0.00 | 0.00 | 0.00 | 94 | 1010.2 |
| 20260506101942 | 75 | 132 | 1.0 | 2.0 | 0.00 | 0.00 | 0.00 | 94 | 1009.8 |
| 20260506101438 | 75 | 135 | 0.0 | 0.0 | 0.00 | 0.00 | 0.00 | 94 | 1009.8 |
| 20260506100935 | 75 | 183 | 1.0 | 2.0 | 0.00 | 0.00 | 0.00 | 94 | 1009.8 |
| 20260506100433 | 75 | 146 | 0.0 | 1.0 | 0.00 | 0.00 | 0.00 | 93 | 1009.8 |
| 20260506095931 | 75 | 145 | 0.0 | 1.0 | 0.00 | 0.00 | 0.00 | 93 | 1009.8 |
| 20260506095430 | 76 | 151 | 2.0 | 2.0 | 0.00 | 0.00 | 0.00 | 92 | 1009.8 |
| 20260506094925 | 76 | 166 | 1.0 | 1.0 | 0.00 | 0.00 | 0.00 | 92 | 1009.8 |
| 20260506094424 | 76 | 151 | 1.0 | 1.0 | 0.00 | 0.00 | 0.00 | 92 | 1009.8 |
| 20260506093921 | 76 | 146 | 1.0 | 1.0 | 0.00 | 0.00 | 0.00 | 92 | 1009.8 |
| 20260506093419 | 76 | 163 | 1.0 | 2.0 | 0.00 | 0.00 | 0.00 | 92 | 1009.8 |
| 20260506092917 | 76 | 150 | 0.0 | 1.0 | 0.00 | 0.00 | 0.00 | 92 | 1009.8 |
| 20260506092415 | 76 | 146 | 2.0 | 2.0 | 0.00 | 0.00 | 0.00 | 92 | 1009.8 |
| 20260506091911 | 76 | 152 | 2.0 | 2.0 | 0.00 | 0.00 | 0.00 | 92 | 1009.5 |
| 20260506091409 | 76 | 138 | 2.0 | 2.0 | 0.00 | 0.00 | 0.00 | 92 | 1010.2 |
| 20260506090906 | 76 | 148 | 1.0 | 1.0 | 0.00 | 0.00 | 0.00 | 92 | 1009.8 |
| 20260506090403 | 76 | 151 | 0.0 | 1.0 | 0.00 | 0.00 | 0.00 | 91 | 1009.8 |
| 20260506085900 | 76 | 172 | 2.0 | 2.0 | 0.00 | 0.00 | 0.00 | 91 | 1009.8 |
| 20260506085356 | 76 | 172 | 1.0 | 1.0 | 0.00 | 0.00 | 0.00 | 91 | 1009.8 |
| 20260506084853 | 76 | 156 | 1.0 | 1.0 | 0.00 | 0.00 | 0.00 | 91 | 1009.8 |
| 20260506084350 | 76 | 145 | 1.0 | 2.0 | 0.00 | 0.00 | 0.00 | 91 | 1009.8 |
| 20260506083846 | 76 | 173 | 3.0 | 5.0 | 0.00 | 0.00 | 0.00 | 91 | 1010.2 |
| 20260506083344 | 76 | 165 | 3.0 | 5.0 | 0.00 | 0.00 | 0.00 | 91 | 1010.2 |
| 20260506082841 | 76 | 154 | 2.0 | 3.0 | 0.00 | 0.00 | 0.00 | 91 | 1009.8 |
| 20260506082337 | 77 | 161 | 2.0 | 2.0 | 0.00 | 0.00 | 0.00 | 91 | 1010.2 |
| 20260506081833 | 77 | 162 | 2.0 | 2.0 | 0.00 | 0.00 | 0.00 | 91 | 1010.2 |
| 20260506081332 | 77 | 154 | 2.0 | 2.0 | 0.00 | 0.00 | 0.00 | 91 | 1009.8 |
| 20260506080829 | 77 | 181 | 4.0 | 5.0 | 0.00 | 0.00 | 0.00 | 90 | 1010.2 |
| 20260506080325 | 77 | 184 | 3.0 | 5.0 | 0.00 | 0.00 | 0.00 | 90 | 1010.2 |
| 20260506073310 | 77 | 164 | 2.0 | 3.0 | 0.00 | 0.00 | 0.00 | 90 | 1010.2 |
| 20260506072806 | 77 | 150 | 2.0 | 2.0 | 0.00 | 0.00 | 0.00 | 90 | 1010.2 |
| 20260506072305 | 77 | 108 | 2.0 | 3.0 | 0.00 | 0.00 | 0.00 | 90 | 1010.2 |
| 20260506071801 | 77 | 157 | 3.0 | 3.0 | 0.00 | 0.00 | 0.00 | 90 | 1010.2 |
| 20260506071259 | 77 | 112 | 1.0 | 2.0 | 0.00 | 0.00 | 0.00 | 90 | 1010.2 |
| 20260506070756 | 77 | 137 | 1.0 | 1.0 | 0.00 | 0.00 | 0.00 | 90 | 1010.2 |
| 20260506070253 | 77 | 169 | 2.0 | 2.0 | 0.00 | 0.00 | 0.00 | 91 | 1010.5 |
| 20260506062230 | 77 | 114 | 3.0 | 3.0 | 0.00 | 0.00 | 0.00 | 91 | 1010.5 |
| 20260506061726 | 77 | 157 | 3.0 | 5.0 | 0.00 | 0.00 | 0.00 | 91 | 1010.5 |
| 20260506061224 | 77 | 147 | 4.0 | 6.0 | 0.00 | 0.00 | 0.00 | 91 | 1010.5 |
| 20260506060722 | 77 | 180 | 5.0 | 7.0 | 0.00 | 0.00 | 0.00 | 91 | 1010.5 |
| 20260506060219 | 77 | 114 | 3.0 | 5.0 | 0.00 | 0.00 | 0.00 | 91 | 1010.5 |
| 20260506051151 | 77 | 138 | 6.0 | 8.0 | 0.00 | 0.00 | 0.00 | 90 | 1010.2 |
| 20260506050649 | 77 | 136 | 2.0 | 2.0 | 0.00 | 0.00 | 0.00 | 90 | 1010.2 |
| 20260506050146 | 77 | 149 | 2.0 | 3.0 | 0.00 | 0.00 | 0.00 | 90 | 1010.5 |
| 20260506044637 | 77 | 195 | 2.0 | 5.0 | 0.00 | 0.00 | 0.00 | 90 | 1010.5 |
| 20260506044134 | 77 | 148 | 3.0 | 5.0 | 0.00 | 0.00 | 0.00 | 90 | 1010.5 |
| 20260506043631 | 77 | 142 | 0.0 | 1.0 | 0.00 | 0.00 | 0.00 | 90 | 1010.5 |
| 20260506043129 | 77 | 128 | 3.0 | 3.0 | 0.00 | 0.00 | 0.00 | 90 | 1010.5 |
| 20260506042628 | 77 | 187 | 7.0 | 8.0 | 0.00 | 0.00 | 0.00 | 90 | 1010.5 |
| 20260506042125 | 77 | 162 | 3.0 | 5.0 | 0.00 | 0.00 | 0.00 | 90 | 1010.2 |
| 20260506041624 | 77 | 124 | 2.0 | 2.0 | 0.00 | 0.00 | 0.00 | 90 | 1010.2 |
| 20260506041120 | 77 | 120 | 3.0 | 3.0 | 0.00 | 0.00 | 0.00 | 90 | 1010.2 |
| 20260506040618 | 77 | 182 | 3.0 | 6.0 | 0.00 | 0.00 | 0.00 | 90 | 1010.2 |
| 20260506040114 | 77 | 166 | 1.0 | 1.0 | 0.00 | 0.00 | 0.00 | 90 | 1010.2 |
| 20260506035611 | 78 | 150 | 1.0 | 2.0 | 0.00 | 0.00 | 0.00 | 90 | 1009.8 |
| 20260506035108 | 78 | 117 | 2.0 | 5.0 | 0.00 | 0.00 | 0.00 | 90 | 1009.8 |
| 20260506034605 | 78 | 157 | 1.0 | 2.0 | 0.00 | 0.00 | 0.00 | 90 | 1009.8 |
| 20260506034102 | 78 | 170 | 1.0 | 2.0 | 0.00 | 0.00 | 0.00 | 89 | 1009.8 |
| 20260506033559 | 78 | 162 | 2.0 | 2.0 | 0.00 | 0.00 | 0.00 | 89 | 1009.5 |
| 20260506033056 | 78 | 150 | 1.0 | 2.0 | 0.00 | 0.00 | 0.00 | 89 | 1009.8 |
| 20260506032554 | 78 | 130 | 2.0 | 3.0 | 0.00 | 0.00 | 0.00 | 88 | 1009.5 |
| 20260506032050 | 78 | 156 | 2.0 | 2.0 | 0.00 | 0.00 | 0.00 | 88 | 1009.5 |
| 20260506031548 | 79 | 137 | 2.0 | 2.0 | 0.00 | 0.00 | 0.00 | 88 | 1009.5 |
| 20260506031044 | 79 | 115 | 3.0 | 5.0 | 0.00 | 0.00 | 0.00 | 87 | 1009.5 |
| 20260506030543 | 79 | 162 | 3.0 | 5.0 | 0.00 | 0.00 | 0.00 | 87 | 1009.5 |
| 20260506030040 | 79 | 133 | 6.0 | 7.0 | 0.00 | 0.00 | 0.00 | 87 | 1009.5 |
| 20260506025537 | 79 | 150 | 3.0 | 5.0 | 0.00 | 0.00 | 0.00 | 87 | 1009.5 |
| 20260506025032 | 80 | 108 | 4.0 | 5.0 | 0.00 | 0.00 | 0.00 | 86 | 1009.2 |
| 20260506024530 | 80 | 168 | 5.0 | 7.0 | 0.00 | 0.00 | 0.00 | 86 | 1009.2 |
| 20260506024026 | 80 | 148 | 2.0 | 2.0 | 0.00 | 0.00 | 0.00 | 85 | 1009.2 |
| 20260506023522 | 80 | 144 | 3.0 | 3.0 | 0.00 | 0.00 | 0.00 | 85 | 1009.2 |
| 20260506023020 | 80 | 138 | 2.0 | 3.0 | 0.00 | 0.00 | 0.00 | 84 | 1009.2 |
| 20260506022517 | 80 | 114 | 3.0 | 3.0 | 0.00 | 0.00 | 0.00 | 85 | 1008.7 |
| 20260506022015 | 81 | 103 | 6.0 | 7.0 | 0.00 | 0.00 | 0.00 | 84 | 1009.2 |
| 20260506021512 | 81 | 151 | 4.0 | 6.0 | 0.00 | 0.00 | 0.00 | 84 | 1008.7 |
| 20260506021009 | 81 | 135 | 3.0 | 3.0 | 0.00 | 0.00 | 0.00 | 84 | 1008.4 |
| 20260506020507 | 82 | 155 | 5.0 | 10.0 | 0.00 | 0.00 | 0.00 | 83 | 1008.4 |
| 20260506020004 | 82 | 108 | 2.0 | 3.0 | 0.00 | 0.00 | 0.00 | 83 | 1008.4 |
| 20260506015501 | 82 | 126 | 3.0 | 3.0 | 0.00 | 0.00 | 0.00 | 82 | 1008.4 |
| 20260506014958 | 82 | 179 | 5.0 | 8.0 | 0.00 | 0.00 | 0.00 | 82 | 1008.4 |
| 20260506014455 | 83 | 111 | 3.0 | 5.0 | 0.00 | 0.00 | 0.00 | 81 | 1008.4 |
| 20260506013951 | 83 | 122 | 2.0 | 2.0 | 0.00 | 0.00 | 0.00 | 81 | 1008.4 |
| 20260506013449 | 83 | 136 | 0.0 | 1.0 | 0.00 | 0.00 | 0.00 | 80 | 1008.0 |
| 20260506012945 | 83 | 102 | 3.0 | 7.0 | 0.00 | 0.00 | 0.00 | 79 | 1008.0 |
| 20260506012442 | 83 | 145 | 5.0 | 7.0 | 0.00 | 0.00 | 0.00 | 79 | 1008.0 |
| 20260506011939 | 84 | 118 | 4.0 | 7.0 | 0.00 | 0.00 | 0.00 | 78 | 1008.0 |
| 20260506011436 | 84 | 120 | 5.0 | 7.0 | 0.00 | 0.00 | 0.00 | 78 | 1008.0 |
| 20260506010933 | 84 | 109 | 6.0 | 9.0 | 0.00 | 0.00 | 0.00 | 77 | 1007.7 |
| 20260506010432 | 85 | 169 | 1.0 | 2.0 | 0.00 | 0.00 | 0.00 | 75 | 1007.7 |
| 20260506005927 | 85 | 120 | 0.0 | 1.0 | 0.00 | 0.00 | 0.00 | 74 | 1007.4 |
| 20260506005426 | 85 | 121 | 2.0 | 2.0 | 0.00 | 0.00 | 0.00 | 74 | 1007.4 |
| 20260506004920 | 85 | 130 | 1.0 | 1.0 | 0.00 | 0.00 | 0.00 | 74 | 1007.4 |
| 20260506004419 | 85 | 143 | 3.0 | 3.0 | 0.00 | 0.00 | 0.00 | 74 | 1007.4 |
| 20260506003914 | 85 | 129 | 2.0 | 3.0 | 0.00 | 0.00 | 0.00 | 74 | 1007.7 |
| 20260506003411 | 85 | 145 | 3.0 | 5.0 | 0.00 | 0.00 | 0.00 | 74 | 1007.4 |
| 20260506002908 | 86 | 132 | 3.0 | 3.0 | 0.00 | 0.00 | 0.00 | 73 | 1007.4 |
| 20260506002404 | 86 | 130 | 4.0 | 6.0 | 0.00 | 0.00 | 0.00 | 73 | 1007.4 |
| 20260506001859 | 86 | 111 | 4.0 | 6.0 | 0.00 | 0.00 | 0.00 | 72 | 1007.4 |
| 20260506001356 | 87 | 132 | 1.0 | 1.0 | 0.00 | 0.00 | 0.00 | 72 | 1007.4 |
| 20260506000854 | 87 | 150 | 3.0 | 3.0 | 0.00 | 0.00 | 0.00 | 72 | 1007.4 |
| 20260506000354 | 87 | 136 | 1.0 | 1.0 | 0.00 | 0.00 | 0.00 | 72 | 1007.4 |
| 20260505235848 | 87 | 158 | 1.0 | 2.0 | 0.00 | 0.00 | 0.00 | 72 | 1007.0 |
| 20260505235346 | 87 | 138 | 1.0 | 1.0 | 0.00 | 0.00 | 0.00 | 72 | 1007.0 |
| 20260505234842 | 87 | 132 | 3.0 | 3.0 | 0.00 | 0.00 | 0.00 | 71 | 1007.4 |
| 20260505234340 | 86 | 135 | 5.0 | 6.0 | 0.00 | 0.00 | 0.00 | 72 | 1007.0 |
| 20260505233837 | 86 | 156 | 4.0 | 6.0 | 0.00 | 0.00 | 0.00 | 72 | 1007.0 |
| 20260505233335 | 87 | 145 | 3.0 | 3.0 | 0.00 | 0.00 | 0.00 | 71 | 1007.0 |
| 20260505232832 | 87 | 139 | 3.0 | 3.0 | 0.00 | 0.00 | 0.00 | 71 | 1007.0 |
| 20260505232330 | 87 | 99 | 3.0 | 5.0 | 0.00 | 0.00 | 0.00 | 70 | 1007.0 |
| 20260505231826 | 87 | 140 | 3.0 | 3.0 | 0.00 | 0.00 | 0.00 | 70 | 1007.0 |
| 20260505231324 | 88 | 122 | 5.0 | 8.0 | 0.00 | 0.00 | 0.00 | 69 | 1007.0 |
| 20260505230822 | 88 | 128 | 3.0 | 5.0 | 0.00 | 0.00 | 0.00 | 69 | 1007.0 |
| 20260505230319 | 88 | 155 | 6.0 | 9.0 | 0.00 | 0.00 | 0.00 | 69 | 1007.0 |
| 20260505225815 | 88 | 149 | 2.0 | 3.0 | 0.00 | 0.00 | 0.00 | 70 | 1007.0 |
| 20260505225313 | 88 | 132 | 5.0 | 7.0 | 0.00 | 0.00 | 0.00 | 70 | 1006.7 |
| 20260505224807 | 88 | 155 | 2.0 | 3.0 | 0.00 | 0.00 | 0.00 | 69 | 1006.7 |
| 20260505224305 | 88 | 152 | 2.0 | 2.0 | 0.00 | 0.00 | 0.00 | 69 | 1006.7 |
| 20260505223803 | 89 | 153 | 5.0 | 8.0 | 0.00 | 0.00 | 0.00 | 67 | 1007.0 |
| 20260505223300 | 89 | 130 | 3.0 | 5.0 | 0.00 | 0.00 | 0.00 | 66 | 1007.0 |
| 20260505222755 | 89 | 151 | 2.0 | 2.0 | 0.00 | 0.00 | 0.00 | 66 | 1007.0 |
| 20260505222252 | 90 | 168 | 2.0 | 2.0 | 0.00 | 0.00 | 0.00 | 67 | 1007.4 |
| 20260505221749 | 90 | 162 | 2.0 | 2.0 | 0.00 | 0.00 | 0.00 | 65 | 1007.4 |
| 20260505221245 | 90 | 176 | 2.0 | 2.0 | 0.00 | 0.00 | 0.00 | 65 | 1007.4 |
| 20260505220742 | 88 | 151 | 0.0 | 1.0 | 0.00 | 0.00 | 0.00 | 67 | 1007.4 |
| 20260505220239 | 87 | 192 | 2.0 | 2.0 | 0.00 | 0.00 | 0.00 | 69 | 1007.4 |
| 20260505215737 | 87 | 186 | 2.0 | 2.0 | 0.00 | 0.00 | 0.00 | 68 | 1007.4 |